Location: Laura�t
(43.9341°N, 0.2497°E)
Time: 23:24:05
(UTC+00:00)

Meteor 2-4 Rocket - Pass Details

Date: 03 March 2021
Orbit: 799 x 908 km, 81.2° (Epoch: 17 April)

Event Time Altitude Azimuth Distance (km) Brightness Sun altitude
Rises 18:46:14 0° 353° (N) 3,490 7.0 -10.9°
Reaches altitude 10° 18:48:45 10° 359° (N) 2,561 6.3 -11.3°
Maximum altitude 18:54:28 53° 76° (ENE) 1,096 3.9 -12.4°
Drops below altitude 10° 19:00:14 10° 152° (SSE) 2,583 5.9 -13.4°
Sets 19:02:46 0° 157° (SSE) 3,523 6.7 -13.9°
